Year,Month,Day,Hour,Minute,Value (Times are PST for temperature in C)
2017,09,28,00,00,12.60
2017,09,28,00,01,12.70
2017,09,28,00,02,12.70
2017,09,28,00,03,12.70
2017,09,28,00,04,12.70
2017,09,28,00,05,12.70
2017,09,28,00,06,12.60
2017,09,28,00,07,12.60
2017,09,28,00,08,12.60
2017,09,28,00,09,12.50
2017,09,28,00,10,12.50
2017,09,28,00,11,12.40
2017,09,28,00,12,12.40
2017,09,28,00,13,12.40
2017,09,28,00,14,12.40
2017,09,28,00,15,12.30
2017,09,28,00,16,12.30
2017,09,28,00,17,12.30
2017,09,28,00,18,12.30
2017,09,28,00,19,12.30
2017,09,28,00,20,12.20
2017,09,28,00,21,12.20
2017,09,28,00,22,12.20
2017,09,28,00,23,12.20
2017,09,28,00,24,12.20
2017,09,28,00,25,12.20
2017,09,28,00,26,12.20
2017,09,28,00,27,12.20
2017,09,28,00,28,12.20
2017,09,28,00,29,12.20
2017,09,28,00,30,12.20
2017,09,28,00,31,12.20
2017,09,28,00,32,12.10
2017,09,28,00,33,12.10
2017,09,28,00,34,12.10
2017,09,28,00,35,12.10
2017,09,28,00,36,12.10
2017,09,28,00,37,12.10
2017,09,28,00,38,12.10
2017,09,28,00,39,12.10
2017,09,28,00,40,12.10
2017,09,28,00,41,12.10
2017,09,28,00,42,12.10
2017,09,28,00,43,12.10
2017,09,28,00,44,12.10
2017,09,28,00,45,12.10
2017,09,28,00,46,12.10
2017,09,28,00,47,12.10
2017,09,28,00,48,12.10
2017,09,28,00,49,12.10
2017,09,28,00,50,12.10
2017,09,28,00,51,12.10
2017,09,28,00,52,12.00
2017,09,28,00,53,12.00
2017,09,28,00,54,12.00
2017,09,28,00,55,11.90
2017,09,28,00,56,11.90
2017,09,28,00,57,11.90
2017,09,28,00,58,11.90
2017,09,28,00,59,11.90
2017,09,28,01,00,11.90
2017,09,28,01,01,11.90
2017,09,28,01,02,11.90
2017,09,28,01,03,11.90
2017,09,28,01,04,11.90
2017,09,28,01,05,11.90
2017,09,28,01,06,11.90
2017,09,28,01,07,11.90
2017,09,28,01,08,11.90
2017,09,28,01,09,11.90
2017,09,28,01,10,11.90
2017,09,28,01,11,11.90
2017,09,28,01,12,11.90
2017,09,28,01,13,11.90
2017,09,28,01,14,11.90
2017,09,28,01,15,11.90
2017,09,28,01,16,11.90
2017,09,28,01,17,11.90
2017,09,28,01,18,11.90
2017,09,28,01,19,11.90
2017,09,28,01,20,11.90
2017,09,28,01,21,11.90
2017,09,28,01,22,11.90
2017,09,28,01,23,11.80
2017,09,28,01,24,11.80
2017,09,28,01,25,11.80
2017,09,28,01,26,11.80
2017,09,28,01,27,11.80
2017,09,28,01,28,11.80
2017,09,28,01,29,11.80
2017,09,28,01,30,11.80
2017,09,28,01,31,11.80
2017,09,28,01,32,11.80
2017,09,28,01,33,11.80
2017,09,28,01,34,11.80
2017,09,28,01,35,11.70
2017,09,28,01,36,11.70
2017,09,28,01,37,11.80
2017,09,28,01,38,11.80
2017,09,28,01,39,11.80
2017,09,28,01,40,11.80
2017,09,28,01,41,11.70
2017,09,28,01,42,11.70
2017,09,28,01,43,11.70
2017,09,28,01,44,11.70
2017,09,28,01,45,11.70
2017,09,28,01,46,11.70
2017,09,28,01,47,11.70
2017,09,28,01,48,11.70
2017,09,28,01,49,11.70
2017,09,28,01,50,11.70
2017,09,28,01,51,11.70
2017,09,28,01,52,11.70
2017,09,28,01,53,11.70
2017,09,28,01,54,11.80
2017,09,28,01,55,11.90
2017,09,28,01,56,11.90
2017,09,28,01,57,12.00
2017,09,28,01,58,12.20
2017,09,28,01,59,12.50
2017,09,28,02,00,12.70
2017,09,28,02,01,13.00
2017,09,28,02,02,13.10
2017,09,28,02,03,13.30
2017,09,28,02,04,13.50
2017,09,28,02,05,13.60
2017,09,28,02,06,13.60
2017,09,28,02,07,13.70
2017,09,28,02,08,13.70
2017,09,28,02,09,13.80
2017,09,28,02,10,13.80
2017,09,28,02,11,13.90
2017,09,28,02,12,13.90
2017,09,28,02,13,13.90
2017,09,28,02,14,13.90
2017,09,28,02,15,13.80
2017,09,28,02,16,13.90
2017,09,28,02,17,13.80
2017,09,28,02,18,13.60
2017,09,28,02,19,13.20
2017,09,28,02,20,12.80
2017,09,28,02,21,12.70
2017,09,28,02,22,12.60
2017,09,28,02,23,12.50
2017,09,28,02,24,12.50
2017,09,28,02,25,12.60
2017,09,28,02,26,12.90
2017,09,28,02,27,13.20
2017,09,28,02,28,13.50
2017,09,28,02,29,13.80
2017,09,28,02,30,14.00
2017,09,28,02,31,14.10
2017,09,28,02,32,14.20
2017,09,28,02,33,14.30
2017,09,28,02,34,14.30
2017,09,28,02,35,14.30
2017,09,28,02,36,14.30
2017,09,28,02,37,14.30
2017,09,28,02,38,14.30
2017,09,28,02,39,14.30
2017,09,28,02,40,14.30
2017,09,28,02,41,14.30
2017,09,28,02,42,14.30
2017,09,28,02,43,14.30
2017,09,28,02,44,14.30
2017,09,28,02,45,14.30
2017,09,28,02,46,14.30
2017,09,28,02,47,14.40
2017,09,28,02,48,14.40
2017,09,28,02,49,14.40
2017,09,28,02,50,14.40
2017,09,28,02,51,14.50
2017,09,28,02,52,14.50
2017,09,28,02,53,14.50
2017,09,28,02,54,14.50
2017,09,28,02,55,14.50
2017,09,28,02,56,14.50
2017,09,28,02,57,14.50
2017,09,28,02,58,14.50
2017,09,28,02,59,14.50
2017,09,28,03,00,14.50
2017,09,28,03,01,14.50
2017,09,28,03,02,14.50
2017,09,28,03,03,14.40
2017,09,28,03,04,14.40
2017,09,28,03,05,14.40
2017,09,28,03,06,14.40
2017,09,28,03,07,14.40
2017,09,28,03,08,14.30
2017,09,28,03,09,14.30
2017,09,28,03,10,14.30
2017,09,28,03,11,14.30
2017,09,28,03,12,14.20
2017,09,28,03,13,14.20
2017,09,28,03,14,14.10
2017,09,28,03,15,14.00
2017,09,28,03,16,13.90
2017,09,28,03,17,13.80
2017,09,28,03,18,13.70
2017,09,28,03,19,13.60
2017,09,28,03,20,13.50
2017,09,28,03,21,13.50
2017,09,28,03,22,13.40
2017,09,28,03,23,13.30
2017,09,28,03,24,13.30
2017,09,28,03,25,13.30
2017,09,28,03,26,13.40
2017,09,28,03,27,13.50
2017,09,28,03,28,13.60
2017,09,28,03,29,13.70
2017,09,28,03,30,13.80
2017,09,28,03,31,13.90
2017,09,28,03,32,14.00
2017,09,28,03,33,14.10
2017,09,28,03,34,14.20
2017,09,28,03,35,14.30
2017,09,28,03,36,14.40
2017,09,28,03,37,14.50
2017,09,28,03,38,14.50
2017,09,28,03,39,14.50
2017,09,28,03,40,14.50
2017,09,28,03,41,14.40
2017,09,28,03,42,14.40
2017,09,28,03,43,14.50
2017,09,28,03,44,14.50
2017,09,28,03,45,14.50
2017,09,28,03,46,14.40
2017,09,28,03,47,14.40
2017,09,28,03,48,14.40
2017,09,28,03,49,14.40
2017,09,28,03,50,14.40
2017,09,28,03,51,14.40
2017,09,28,03,52,14.40
2017,09,28,03,53,14.40
2017,09,28,03,54,14.40
2017,09,28,03,55,14.40
2017,09,28,03,56,14.40
2017,09,28,03,57,14.40
2017,09,28,03,58,14.40
2017,09,28,03,59,14.40
2017,09,28,04,00,14.30
2017,09,28,04,01,14.30
2017,09,28,04,02,14.40
2017,09,28,04,03,14.40
2017,09,28,04,04,14.40
2017,09,28,04,05,14.30
2017,09,28,04,06,14.30
2017,09,28,04,07,14.30
2017,09,28,04,08,14.30
2017,09,28,04,09,14.20
2017,09,28,04,10,14.10
2017,09,28,04,11,13.90
2017,09,28,04,12,13.80
2017,09,28,04,13,13.60
2017,09,28,04,14,13.50
2017,09,28,04,15,13.40
2017,09,28,04,16,13.30
2017,09,28,04,17,13.10
2017,09,28,04,18,12.90
2017,09,28,04,19,12.80
2017,09,28,04,20,12.70
2017,09,28,04,21,12.60
2017,09,28,04,22,12.50
2017,09,28,04,23,12.40
2017,09,28,04,24,12.40
2017,09,28,04,25,12.40
2017,09,28,04,26,12.30
2017,09,28,04,27,12.30
2017,09,28,04,28,12.30
2017,09,28,04,29,12.20
2017,09,28,04,30,12.20
2017,09,28,04,31,12.20
2017,09,28,04,32,12.10
2017,09,28,04,33,12.10
2017,09,28,04,34,12.00
2017,09,28,04,35,12.00
2017,09,28,04,36,12.00
2017,09,28,04,37,12.00
2017,09,28,04,38,11.90
2017,09,28,04,39,12.00
2017,09,28,04,40,12.00
2017,09,28,04,41,12.10
2017,09,28,04,42,12.20
2017,09,28,04,43,12.20
2017,09,28,04,44,12.20
2017,09,28,04,45,12.20
2017,09,28,04,46,12.20
2017,09,28,04,47,12.20
2017,09,28,04,48,12.20
2017,09,28,04,49,12.20
2017,09,28,04,50,12.20
2017,09,28,04,51,12.20
2017,09,28,04,52,12.30
2017,09,28,04,53,12.30
2017,09,28,04,54,12.30
2017,09,28,04,55,12.40
2017,09,28,04,56,12.40
2017,09,28,04,57,12.50
2017,09,28,04,58,12.60
2017,09,28,04,59,12.60
2017,09,28,05,00,12.70
2017,09,28,05,01,12.80
2017,09,28,05,02,12.90
2017,09,28,05,03,13.00
2017,09,28,05,04,13.10
2017,09,28,05,05,13.10
2017,09,28,05,06,13.20
2017,09,28,05,07,13.30
2017,09,28,05,08,13.30
2017,09,28,05,09,13.40
2017,09,28,05,10,13.50
2017,09,28,05,11,13.60
2017,09,28,05,12,13.60
2017,09,28,05,13,13.60
2017,09,28,05,14,13.60
2017,09,28,05,15,13.70
2017,09,28,05,16,13.70
2017,09,28,05,17,13.70
2017,09,28,05,18,13.60
2017,09,28,05,19,13.60
2017,09,28,05,20,13.70
2017,09,28,05,21,13.70
2017,09,28,05,22,13.70
2017,09,28,05,23,13.70
2017,09,28,05,24,13.70
2017,09,28,05,25,13.70
2017,09,28,05,26,13.70
2017,09,28,05,27,13.80
2017,09,28,05,28,13.80
2017,09,28,05,29,13.80
2017,09,28,05,30,13.80
2017,09,28,05,31,13.80
2017,09,28,05,32,13.80
2017,09,28,05,33,13.80
2017,09,28,05,34,13.70
2017,09,28,05,35,13.70
2017,09,28,05,36,13.70
2017,09,28,05,37,13.70
2017,09,28,05,38,13.70
2017,09,28,05,39,13.70
2017,09,28,05,40,13.70
2017,09,28,05,41,13.70
2017,09,28,05,42,13.70
2017,09,28,05,43,13.70
2017,09,28,05,44,13.70
2017,09,28,05,45,13.70
2017,09,28,05,46,13.70
2017,09,28,05,47,13.70
2017,09,28,05,48,13.80
2017,09,28,05,49,13.80
2017,09,28,05,50,13.80
2017,09,28,05,51,13.80
2017,09,28,05,52,13.80
2017,09,28,05,53,13.80
2017,09,28,05,54,13.80
2017,09,28,05,55,13.80
2017,09,28,05,56,13.80
2017,09,28,05,57,13.70
2017,09,28,05,58,13.70
2017,09,28,05,59,13.70
2017,09,28,06,00,13.60
2017,09,28,06,01,13.60
2017,09,28,06,02,13.60
2017,09,28,06,03,13.60
2017,09,28,06,04,13.60
2017,09,28,06,05,13.60
2017,09,28,06,06,13.60
2017,09,28,06,07,13.60
2017,09,28,06,08,13.60
2017,09,28,06,09,13.60
2017,09,28,06,10,13.60
2017,09,28,06,11,13.70
2017,09,28,06,12,13.70
2017,09,28,06,13,13.70
2017,09,28,06,14,13.70
2017,09,28,06,15,13.70
2017,09,28,06,16,13.70
2017,09,28,06,17,13.70
2017,09,28,06,18,13.70
2017,09,28,06,19,13.70
2017,09,28,06,20,13.70
2017,09,28,06,21,13.70
2017,09,28,06,22,13.70
2017,09,28,06,23,13.70
2017,09,28,06,24,13.80
2017,09,28,06,25,13.80
2017,09,28,06,26,13.80
2017,09,28,06,27,13.90
2017,09,28,06,28,13.90
2017,09,28,06,29,13.90
2017,09,28,06,30,13.90
2017,09,28,06,31,13.90
2017,09,28,06,32,13.90
2017,09,28,06,33,13.90
2017,09,28,06,34,13.80
2017,09,28,06,35,13.90
2017,09,28,06,36,14.00
2017,09,28,06,37,14.00
2017,09,28,06,38,14.00
2017,09,28,06,39,14.00
2017,09,28,06,40,14.00
2017,09,28,06,41,13.90
2017,09,28,06,42,13.90
2017,09,28,06,43,13.90
2017,09,28,06,44,13.90
2017,09,28,06,45,14.00
2017,09,28,06,46,14.00
2017,09,28,06,47,14.00
2017,09,28,06,48,14.00
2017,09,28,06,49,14.00
2017,09,28,06,50,14.00
2017,09,28,06,51,14.00
2017,09,28,06,52,14.00
2017,09,28,06,53,14.00
2017,09,28,06,54,14.10
2017,09,28,06,55,14.10
2017,09,28,06,56,14.00
2017,09,28,06,57,14.10
2017,09,28,06,58,14.10
2017,09,28,06,59,14.10
2017,09,28,07,00,14.10
2017,09,28,07,01,14.10
2017,09,28,07,02,14.10
2017,09,28,07,03,14.10
2017,09,28,07,04,14.00
2017,09,28,07,05,14.00
2017,09,28,07,06,13.90
2017,09,28,07,07,13.90
2017,09,28,07,08,13.80
2017,09,28,07,09,13.80
2017,09,28,07,10,13.80
2017,09,28,07,11,13.70
2017,09,28,07,12,13.70
2017,09,28,07,13,13.70
2017,09,28,07,14,13.70
2017,09,28,07,15,13.60
2017,09,28,07,16,13.70
2017,09,28,07,17,13.70
2017,09,28,07,18,13.70
2017,09,28,07,19,13.70
2017,09,28,07,20,13.70
2017,09,28,07,21,13.70
2017,09,28,07,22,13.70
2017,09,28,07,23,13.70
2017,09,28,07,24,13.70
2017,09,28,07,25,13.70
2017,09,28,07,26,13.80
2017,09,28,07,27,13.80
2017,09,28,07,28,13.80
2017,09,28,07,29,13.80
2017,09,28,07,30,13.80
2017,09,28,07,31,13.70
2017,09,28,07,32,13.70
2017,09,28,07,33,13.70
2017,09,28,07,34,13.70
2017,09,28,07,35,13.60
2017,09,28,07,36,13.60
2017,09,28,07,37,13.60
2017,09,28,07,38,13.60
2017,09,28,07,39,13.60
2017,09,28,07,40,13.60
2017,09,28,07,41,13.60
2017,09,28,07,42,13.60
2017,09,28,07,43,13.60
2017,09,28,07,44,13.60
2017,09,28,07,45,13.60
2017,09,28,07,46,13.60
2017,09,28,07,47,13.60
2017,09,28,07,48,13.70
2017,09,28,07,49,13.70
2017,09,28,07,50,13.70
2017,09,28,07,51,13.70
2017,09,28,07,52,13.60
2017,09,28,07,53,13.60
2017,09,28,07,54,13.60
2017,09,28,07,55,13.60
2017,09,28,07,56,13.60
2017,09,28,07,57,13.60
2017,09,28,07,58,13.60
2017,09,28,07,59,13.60
2017,09,28,08,00,13.60
2017,09,28,08,01,13.50
2017,09,28,08,02,13.50
2017,09,28,08,03,13.60
2017,09,28,08,04,13.60
2017,09,28,08,05,13.50
2017,09,28,08,06,13.50
2017,09,28,08,07,13.40
2017,09,28,08,08,13.40
2017,09,28,08,09,13.30
2017,09,28,08,10,13.30
2017,09,28,08,11,13.30
2017,09,28,08,12,13.30
2017,09,28,08,13,13.20
2017,09,28,08,14,13.20
2017,09,28,08,15,13.20
2017,09,28,08,16,13.20
2017,09,28,08,17,13.20
2017,09,28,08,18,13.20
2017,09,28,08,19,13.30
2017,09,28,08,20,13.30
2017,09,28,08,21,13.40
2017,09,28,08,22,13.50
2017,09,28,08,23,13.60
2017,09,28,08,24,13.70
2017,09,28,08,25,13.80
2017,09,28,08,26,13.90
2017,09,28,08,27,13.90
2017,09,28,08,28,13.90
2017,09,28,08,29,14.00
2017,09,28,08,30,14.00
2017,09,28,08,31,14.10
2017,09,28,08,32,14.10
2017,09,28,08,33,14.10
2017,09,28,08,34,14.10
2017,09,28,08,35,14.20
2017,09,28,08,36,14.20
2017,09,28,08,37,14.30
2017,09,28,08,38,14.40
2017,09,28,08,39,14.40
2017,09,28,08,40,14.50
2017,09,28,08,41,14.50
2017,09,28,08,42,14.50
2017,09,28,08,43,14.60
2017,09,28,08,44,14.60
2017,09,28,08,45,14.60
2017,09,28,08,46,14.60
2017,09,28,08,47,14.60
2017,09,28,08,48,14.60
2017,09,28,08,49,14.60
2017,09,28,08,50,14.60
2017,09,28,08,51,14.60
2017,09,28,08,52,14.70
2017,09,28,08,53,14.70
2017,09,28,08,54,14.70
2017,09,28,08,55,14.70
2017,09,28,08,56,14.70
2017,09,28,08,57,14.70
2017,09,28,08,58,14.70
2017,09,28,08,59,14.80
2017,09,28,09,00,14.80
2017,09,28,09,01,14.80
2017,09,28,09,02,14.90
2017,09,28,09,03,14.90
2017,09,28,09,04,14.90
2017,09,28,09,05,15.00
2017,09,28,09,06,15.00
2017,09,28,09,07,15.00
2017,09,28,09,08,15.00
2017,09,28,09,09,15.10
2017,09,28,09,10,15.10
2017,09,28,09,11,15.20
2017,09,28,09,12,15.30
2017,09,28,09,13,15.30
2017,09,28,09,14,15.30
2017,09,28,09,15,15.30
2017,09,28,09,16,15.30
2017,09,28,09,17,15.40
2017,09,28,09,18,15.50
2017,09,28,09,19,15.60
2017,09,28,09,20,15.70
2017,09,28,09,21,15.70
2017,09,28,09,22,15.80
2017,09,28,09,23,15.80
2017,09,28,09,24,15.80
2017,09,28,09,25,15.90
2017,09,28,09,26,16.00
2017,09,28,09,27,16.10
2017,09,28,09,28,16.20
2017,09,28,09,29,16.30
2017,09,28,09,30,16.30
2017,09,28,09,31,16.40
2017,09,28,09,32,16.40
2017,09,28,09,33,16.40
2017,09,28,09,34,16.60
2017,09,28,09,35,16.80
2017,09,28,09,36,17.10
2017,09,28,09,37,17.30
2017,09,28,09,38,17.50
2017,09,28,09,39,17.60
2017,09,28,09,40,17.70
2017,09,28,09,41,17.70
2017,09,28,09,42,17.80
2017,09,28,09,43,17.80
2017,09,28,09,44,17.90
2017,09,28,09,45,18.00
2017,09,28,09,46,18.00
2017,09,28,09,47,18.10
2017,09,28,09,48,18.20
2017,09,28,09,49,18.40
2017,09,28,09,50,18.40
2017,09,28,09,51,18.50
2017,09,28,09,52,18.60
2017,09,28,09,53,18.60
2017,09,28,09,54,18.60
2017,09,28,09,55,18.70
2017,09,28,09,56,18.70
2017,09,28,09,57,18.70
2017,09,28,09,58,18.70
2017,09,28,09,59,18.70
2017,09,28,10,00,18.80
2017,09,28,10,01,18.80
2017,09,28,10,02,18.80
2017,09,28,10,03,18.90
2017,09,28,10,04,19.00
2017,09,28,10,05,19.10
2017,09,28,10,06,19.20
2017,09,28,10,07,19.40
2017,09,28,10,08,19.60
2017,09,28,10,09,19.70
2017,09,28,10,10,19.80
2017,09,28,10,11,19.90
2017,09,28,10,12,19.90
2017,09,28,10,13,20.00
2017,09,28,10,14,20.00
2017,09,28,10,15,20.00
2017,09,28,10,16,19.90
2017,09,28,10,17,20.00
2017,09,28,10,18,20.10
2017,09,28,10,19,20.10
2017,09,28,10,20,20.20
2017,09,28,10,21,20.20
2017,09,28,10,22,20.30
2017,09,28,10,23,20.30
2017,09,28,10,24,20.40
2017,09,28,10,25,20.50
2017,09,28,10,26,20.70
2017,09,28,10,27,20.80
2017,09,28,10,28,20.80
2017,09,28,10,29,21.00
2017,09,28,10,30,21.00
2017,09,28,10,31,21.00
2017,09,28,10,32,21.00
2017,09,28,10,33,20.90
2017,09,28,10,34,20.80
2017,09,28,10,35,20.80
2017,09,28,10,36,20.90
2017,09,28,10,37,21.00
2017,09,28,10,38,21.10
2017,09,28,10,39,21.20
2017,09,28,10,40,21.30
2017,09,28,10,41,21.30
2017,09,28,10,42,21.40
2017,09,28,10,43,21.50
2017,09,28,10,44,21.60
2017,09,28,10,45,21.70
2017,09,28,10,46,21.80
2017,09,28,10,47,21.90
2017,09,28,10,48,21.90
2017,09,28,10,49,21.90
2017,09,28,10,50,21.90
2017,09,28,10,51,21.80
2017,09,28,10,52,21.70
2017,09,28,10,53,21.70
2017,09,28,10,54,21.70
2017,09,28,10,55,21.70
2017,09,28,10,56,21.80
2017,09,28,10,57,21.80
2017,09,28,10,58,21.90
2017,09,28,10,59,21.90
2017,09,28,11,00,21.90
2017,09,28,11,01,22.00
2017,09,28,11,02,22.10
2017,09,28,11,03,22.10
2017,09,28,11,04,22.20
2017,09,28,11,05,22.30
2017,09,28,11,06,22.40
2017,09,28,11,07,22.40
2017,09,28,11,08,22.40
2017,09,28,11,09,22.40
2017,09,28,11,10,22.40
2017,09,28,11,11,22.50
2017,09,28,11,12,22.50
2017,09,28,11,13,22.50
2017,09,28,11,14,22.50
2017,09,28,11,15,22.40
2017,09,28,11,16,22.40
2017,09,28,11,17,22.50
2017,09,28,11,18,22.60
2017,09,28,11,19,22.70
2017,09,28,11,20,22.80
2017,09,28,11,21,22.80
2017,09,28,11,22,22.90
2017,09,28,11,23,22.90
2017,09,28,11,24,22.90
2017,09,28,11,25,22.80
2017,09,28,11,26,22.80
2017,09,28,11,27,22.90
2017,09,28,11,28,22.90
2017,09,28,11,29,23.00
2017,09,28,11,30,23.10
2017,09,28,11,31,23.10
2017,09,28,11,32,23.10
2017,09,28,11,33,23.10
2017,09,28,11,34,23.10
2017,09,28,11,35,23.20
2017,09,28,11,36,23.30
2017,09,28,11,37,23.30
2017,09,28,11,38,23.30
2017,09,28,11,39,23.30
2017,09,28,11,40,23.30
2017,09,28,11,41,23.30
2017,09,28,11,42,23.30
2017,09,28,11,43,23.30
2017,09,28,11,44,23.40
2017,09,28,11,45,23.50
2017,09,28,11,46,23.50
2017,09,28,11,47,23.60
2017,09,28,11,48,23.60
2017,09,28,11,49,23.60
2017,09,28,11,50,23.50
2017,09,28,11,51,23.60
2017,09,28,11,52,23.70
2017,09,28,11,53,23.70
2017,09,28,11,54,23.80
2017,09,28,11,55,23.90
2017,09,28,11,56,23.90
2017,09,28,11,57,23.90
2017,09,28,11,58,24.00
2017,09,28,11,59,24.00
2017,09,28,12,00,24.00
2017,09,28,12,01,24.00
2017,09,28,12,02,24.00
2017,09,28,12,03,24.00
2017,09,28,12,04,24.00
2017,09,28,12,05,24.00
2017,09,28,12,06,24.10
2017,09,28,12,07,24.10
2017,09,28,12,08,24.20
2017,09,28,12,09,24.20
2017,09,28,12,10,24.10
2017,09,28,12,11,24.00
2017,09,28,12,12,24.00
2017,09,28,12,13,24.10
2017,09,28,12,14,24.20
2017,09,28,12,15,24.30
2017,09,28,12,16,24.40
2017,09,28,12,17,24.40
2017,09,28,12,18,24.40
2017,09,28,12,19,24.50
2017,09,28,12,20,24.50
2017,09,28,12,21,24.50
2017,09,28,12,22,24.40
2017,09,28,12,23,24.40
2017,09,28,12,24,24.40
2017,09,28,12,25,24.40
2017,09,28,12,26,24.40
2017,09,28,12,27,24.40
2017,09,28,12,28,24.50
2017,09,28,12,29,24.50
2017,09,28,12,30,24.50
2017,09,28,12,31,24.60
2017,09,28,12,32,24.60
2017,09,28,12,33,24.60
2017,09,28,12,34,24.60
2017,09,28,12,35,24.50
2017,09,28,12,36,24.40
2017,09,28,12,37,24.40
2017,09,28,12,38,24.40
2017,09,28,12,39,24.40
2017,09,28,12,40,24.40
2017,09,28,12,41,24.40
2017,09,28,12,42,24.40
2017,09,28,12,43,24.40
2017,09,28,12,44,24.40
2017,09,28,12,45,24.50
2017,09,28,12,46,24.50
2017,09,28,12,47,24.50
2017,09,28,12,48,24.50
2017,09,28,12,49,24.60
2017,09,28,12,50,24.60
2017,09,28,12,51,24.60
2017,09,28,12,52,24.50
2017,09,28,12,53,24.40
2017,09,28,12,54,24.50
2017,09,28,12,55,24.60
2017,09,28,12,56,24.70
2017,09,28,12,57,24.80
2017,09,28,12,58,24.80
2017,09,28,12,59,24.80
2017,09,28,13,00,24.70
2017,09,28,13,01,24.60
2017,09,28,13,02,24.60
2017,09,28,13,03,24.70
2017,09,28,13,04,24.60
2017,09,28,13,05,24.60
2017,09,28,13,06,24.70
2017,09,28,13,07,24.70
2017,09,28,13,08,24.70
2017,09,28,13,09,24.70
2017,09,28,13,10,24.70
2017,09,28,13,11,24.60
2017,09,28,13,12,24.60
2017,09,28,13,13,24.60
2017,09,28,13,14,24.60
2017,09,28,13,15,24.60
2017,09,28,13,16,24.70
2017,09,28,13,17,24.70
2017,09,28,13,18,24.70
2017,09,28,13,19,24.70
2017,09,28,13,20,24.70
2017,09,28,13,21,24.70
2017,09,28,13,22,24.70
2017,09,28,13,23,24.70
2017,09,28,13,24,24.70
2017,09,28,13,25,24.70
2017,09,28,13,26,24.80
2017,09,28,13,27,24.90
2017,09,28,13,28,24.90
2017,09,28,13,29,24.90
2017,09,28,13,30,24.90
2017,09,28,13,31,25.00
2017,09,28,13,32,25.10
2017,09,28,13,33,25.20
2017,09,28,13,34,25.20
2017,09,28,13,35,25.30
2017,09,28,13,36,25.50
2017,09,28,13,37,25.60
2017,09,28,13,38,25.60
2017,09,28,13,39,25.60
2017,09,28,13,40,25.60
2017,09,28,13,41,25.60
2017,09,28,13,42,25.70
2017,09,28,13,43,25.70
2017,09,28,13,44,25.70
2017,09,28,13,45,25.70
2017,09,28,13,46,25.60
2017,09,28,13,47,25.50
2017,09,28,13,48,25.40
2017,09,28,13,49,25.50
2017,09,28,13,50,25.50
2017,09,28,13,51,25.50
2017,09,28,13,52,25.50
2017,09,28,13,53,25.40
2017,09,28,13,54,25.40
2017,09,28,13,55,25.40
2017,09,28,13,56,25.30
2017,09,28,13,57,25.40
2017,09,28,13,58,25.40
2017,09,28,13,59,25.30
2017,09,28,14,00,25.40
2017,09,28,14,01,25.40
2017,09,28,14,02,25.50
2017,09,28,14,03,25.60
2017,09,28,14,04,25.60
2017,09,28,14,05,25.70
2017,09,28,14,06,25.70
2017,09,28,14,07,25.80
2017,09,28,14,08,25.80
2017,09,28,14,09,25.90
2017,09,28,14,10,26.00
2017,09,28,14,11,26.00
2017,09,28,14,12,25.90
2017,09,28,14,13,25.90
2017,09,28,14,14,25.90
2017,09,28,14,15,25.90
2017,09,28,14,16,25.80
2017,09,28,14,17,25.80
2017,09,28,14,18,25.80
2017,09,28,14,19,25.80
2017,09,28,14,20,25.90
2017,09,28,14,21,25.90
2017,09,28,14,22,25.90
2017,09,28,14,23,25.90
2017,09,28,14,24,25.90
2017,09,28,14,25,26.00
2017,09,28,14,26,26.10
2017,09,28,14,27,26.20
2017,09,28,14,28,26.20
2017,09,28,14,29,26.20
2017,09,28,14,30,26.20
2017,09,28,14,31,26.10
2017,09,28,14,32,26.00
2017,09,28,14,33,26.00
2017,09,28,14,34,26.10
2017,09,28,14,35,26.10
2017,09,28,14,36,26.20
2017,09,28,14,37,26.20
2017,09,28,14,38,26.20
2017,09,28,14,39,26.20
2017,09,28,14,40,26.20
2017,09,28,14,41,26.20
2017,09,28,14,42,26.20
2017,09,28,14,43,26.30
2017,09,28,14,44,26.30
2017,09,28,14,45,26.30
2017,09,28,14,46,26.20
2017,09,28,14,47,26.20
2017,09,28,14,48,26.10
2017,09,28,14,49,26.10
2017,09,28,14,50,26.10
2017,09,28,14,51,26.10
2017,09,28,14,52,26.20
2017,09,28,14,53,26.20
2017,09,28,14,54,26.20
2017,09,28,14,55,26.20
2017,09,28,14,56,26.40
2017,09,28,14,57,26.50
2017,09,28,14,58,26.50
2017,09,28,14,59,26.50
2017,09,28,15,00,26.50
2017,09,28,15,01,26.40
2017,09,28,15,02,26.30
2017,09,28,15,03,26.30
2017,09,28,15,04,26.40
2017,09,28,15,05,26.40
2017,09,28,15,06,26.40
2017,09,28,15,07,26.40
2017,09,28,15,08,26.30
2017,09,28,15,09,26.30
2017,09,28,15,10,26.40
2017,09,28,15,11,26.50
2017,09,28,15,12,26.60
2017,09,28,15,13,26.60
2017,09,28,15,14,26.60
2017,09,28,15,15,26.70
2017,09,28,15,16,26.70
2017,09,28,15,17,26.70
2017,09,28,15,18,26.80
2017,09,28,15,19,26.70
2017,09,28,15,20,26.70
2017,09,28,15,21,26.60
2017,09,28,15,22,26.60
2017,09,28,15,23,26.60
2017,09,28,15,24,26.60
2017,09,28,15,25,26.60
2017,09,28,15,26,26.60
2017,09,28,15,27,26.70
2017,09,28,15,28,26.70
2017,09,28,15,29,26.70
2017,09,28,15,30,26.70
2017,09,28,15,31,26.70
2017,09,28,15,32,26.70
2017,09,28,15,33,26.70
2017,09,28,15,34,26.60
2017,09,28,15,35,26.60
2017,09,28,15,36,26.50
2017,09,28,15,37,26.40
2017,09,28,15,38,26.30
2017,09,28,15,39,26.30
2017,09,28,15,40,26.30
2017,09,28,15,41,26.40
2017,09,28,15,42,26.40
2017,09,28,15,43,26.50
2017,09,28,15,44,26.50
2017,09,28,15,45,26.60
2017,09,28,15,46,26.60
2017,09,28,15,47,26.60
2017,09,28,15,48,26.60
2017,09,28,15,49,26.60
2017,09,28,15,50,26.60
2017,09,28,15,51,26.70
2017,09,28,15,52,26.80
2017,09,28,15,53,26.90
2017,09,28,15,54,27.00
2017,09,28,15,55,27.00
2017,09,28,15,56,27.00
2017,09,28,15,57,26.90
2017,09,28,15,58,26.90
2017,09,28,15,59,26.90
2017,09,28,16,00,26.90
2017,09,28,16,01,26.90
2017,09,28,16,02,26.80
2017,09,28,16,03,26.80
2017,09,28,16,04,26.80
2017,09,28,16,05,26.80
2017,09,28,16,06,26.70
2017,09,28,16,07,26.70
2017,09,28,16,08,26.60
2017,09,28,16,09,26.60
2017,09,28,16,10,26.70
2017,09,28,16,11,26.70
2017,09,28,16,12,26.70
2017,09,28,16,13,26.70
2017,09,28,16,14,26.70
2017,09,28,16,15,26.60
2017,09,28,16,16,26.60
2017,09,28,16,17,26.60
2017,09,28,16,18,26.60
2017,09,28,16,19,26.60
2017,09,28,16,20,26.60
2017,09,28,16,21,26.60
2017,09,28,16,22,26.70
2017,09,28,16,23,26.70
2017,09,28,16,24,26.70
2017,09,28,16,25,26.80
2017,09,28,16,26,26.80
2017,09,28,16,27,26.80
2017,09,28,16,28,26.80
2017,09,28,16,29,26.80
2017,09,28,16,30,26.80
2017,09,28,16,31,26.80
2017,09,28,16,32,26.70
2017,09,28,16,33,26.60
2017,09,28,16,34,26.60
2017,09,28,16,35,26.60
2017,09,28,16,36,26.60
2017,09,28,16,37,26.60
2017,09,28,16,38,26.60
2017,09,28,16,39,26.70
2017,09,28,16,40,26.70
2017,09,28,16,41,26.70
2017,09,28,16,42,26.70
2017,09,28,16,43,26.70
2017,09,28,16,44,26.70
2017,09,28,16,45,26.70
2017,09,28,16,46,26.70
2017,09,28,16,47,26.60
2017,09,28,16,48,26.60
2017,09,28,16,49,26.60
2017,09,28,16,50,26.60
2017,09,28,16,51,26.60
2017,09,28,16,52,26.60
2017,09,28,16,53,26.60
2017,09,28,16,54,26.60
2017,09,28,16,55,26.60
2017,09,28,16,56,26.50
2017,09,28,16,57,26.50
2017,09,28,16,58,26.50
2017,09,28,16,59,26.50
2017,09,28,17,00,26.50
2017,09,28,17,01,26.50
2017,09,28,17,02,26.60
2017,09,28,17,03,26.60
2017,09,28,17,04,26.50
2017,09,28,17,05,26.60
2017,09,28,17,06,26.60
2017,09,28,17,07,26.50
2017,09,28,17,08,26.50
2017,09,28,17,09,26.50
2017,09,28,17,10,26.40
2017,09,28,17,11,26.30
2017,09,28,17,12,26.30
2017,09,28,17,13,26.30
2017,09,28,17,14,26.30
2017,09,28,17,15,26.30
2017,09,28,17,16,26.20
2017,09,28,17,17,26.20
2017,09,28,17,18,26.20
2017,09,28,17,19,26.30